Regional Weather Roundup
Issued by NWS Midland/Odessa, TX

Skip options and go directly to product.
Home | Oldest Version | Previous Version | Current Version | All | Text Only | Save Text | Print | Product List | Glossary Off

Skip product version selection by date and time.   

542
ASUS44 KMAF 270201
RWRMAF
MIDLAND AREA WEATHER ROUNDUP
NATIONAL WEATHER SERVICE MIDLAND TX
900 PM CDT MON SEP 26 2016

...IN SOUTHWEST TEXAS AND SOUTHEAST NEW MEXICO...

CITY           SKY/WX    TMP DP  RH WIND       PRES   REMARKS
ALPINE         CLOUDY    49  48  98 NE7       30.38R
ANDREWS        FAIR      61  50  68 CALM      30.30
ARTESIA        PTCLDY    57  54  88 SW8       30.30S
BIG SPRING     NOT AVBL
CARLSBAD       CLOUDY    57  51  80 SE7       30.29S
DRYDEN           N/A     60  55  83 NW7       30.22R
FORT STOCKTON  LGT RAIN  54  53  97 NW7       30.29S
GUAD PASS      CLOUDY    51  41  68 NE24      30.34S
HOBBS          CLOUDY    59  48  67 CALM      30.31R
MARFA          CLOUDY   N/A N/A N/A NE8G20    30.33R
MIDLAND AIRPK  CLOUDY    65  42  43 CALM      30.27R
MIDLAND INTL   CLOUDY    64  41  42 N3        30.27R
ODESSA         CLOUDY    63  42  46 N5        30.28R
PECOS          RAIN      57  55  92 SW3       30.30R
PRESIDIO       CLOUDY    60  50  69 N13       30.25S
SEMINOLE       CLOUDY    61  47  58 CALM      30.30R
SNYDER           N/A     63  43  49 CALM      30.26R
WINK           CLOUDY    58  56  93 CALM      30.28R
$$
...OTHER STATIONS IN TEXAS...

CITY           SKY/WX    TMP DP  RH WIND       PRES   REMARKS
ABILENE        PTCLDY    64  51  62 N7        30.21R
AMARILLO       CLOUDY    57  39  51 SE8       30.29S
AUSTIN         CLOUDY    69  63  81 N10       30.11R
BROWNSVILLE    MOCLDY    82  74  76 NE10      29.96R
CORPUS CHRISTI CLOUDY    78  74  87 N12       30.00R
DALLAS FTW     CLOUDY    68  59  73 N5        30.14R
DEL RIO        CLOUDY    64  62  93 NW8       30.17R
EL PASO        LGT RAIN  56  48  74 NE3       30.30S
HOUSTON INT    LGT RAIN  74  71  91 N8        30.03R
LUBBOCK        MOCLDY    59  42  53 E6        30.28R
SAN ANGELO     CLOUDY    68  54  60 N8        30.21R
SAN ANTONIO    CLOUDY    68  62  81 N12       30.11R
WACO           CLOUDY    66  62  87 N5        30.13R
WICHITA FALLS  NOT AVBL
$$
...OTHER LOCATIONS IN NEW MEXICO...

CITY           SKY/WX    TMP DP  RH WIND       PRES   REMARKS
ALAMAGORDO     CLOUDY    55  50  82 SW12        N/A
ALBUQUERQUE    PTCLDY    64  29  26 E12       30.32R
CANNON AFB     NOT AVBL
CLOVIS         CLEAR     57  41  54 SE3       30.31S
HOLLOMAN AFB   NOT AVBL
ROSWELL        MOCLDY    60  47  61 S6        30.29S
RUIDOSO        CLOUDY    52  37  58 S5        30.43S
SANTA FE       CLEAR     56  31  38 SE8       30.37S
TRUTH OR CONSE CLOUDY    59  44  57 S21G29    30.30R
TUCUMCARI      CLEAR     60  35  39 S7        30.28R
$$

USA.gov is the U.S. government's official web portal to all federal, state and local government web resources and services.